STARLINK-11270, 60999

Orbit data source: Space-Track

STARLINK-11270, 60999 is a payload satellite owned by SpaceX/Seattle (US) in LEO that was launched on Thu, 05 Sep 2024 UTC via an FALCON 9 launch vehicle from the Air Force Eastern Test Range (AFETR). Payload-class satellites include a variety of spacecraft equipped with specific instruments for various scientific and technological missions. These include communications satellites like Starlink; space stations such as the ISS; scientific satellites like the Hubble; Earth observation satellites from companies like Planet Labs, Umbra, and HawkEye 360; GPS; miniature CubeSats for education and research; and military/defense satellites.

Loading next visibility...
Identifier
60999, 2024-158K
Orbit
LEO
Country
Flag of USUS
Related business
Manufacturer
SpaceX/Seattle
Mission
Operational Commercial Communications
Bus & Motor
STARLINK V2MD, Unknown motor
Mass
960 kg wet, ~910 kg dry
Launch date (UTC)
2024-09-05 (1 year ago)
Launch vehicle
FALCON 9
Launch site
Air Force Eastern Test Range (AFETR)
Object type
Payload
Rocket body
Debris
Shape & HBR
Box + 2 Pan, 18.1 m
Radar Cross Section
36.964 m², Large (>1 m²)

Expand to show TLE details & history
Last TLE update: 9 hours ago

TLE from 9 hours ago
0 STARLINK-11270
1 60999U 24158K   25293.17141778  .00002286  00000-0  23718-4 0  9993
2 60999  53.1600 254.0384 0001252  98.9864 261.1295 15.69711780 65518
Epoch: 2025-10-20T04:06Z
TLE epoch observation values (Epoch: 2025-10-20T04:06:50.496Z)
Latitude
-0.00006°
Longitude
163.4504°
Altitude
360.767 km
Speed
7.694 km/s
True Right ascension
16h 56m 09s
True Declination
0° 00' 00"
Sunlit
Object was in daylight at epoch
Visualization orbit readout
Latitude
Unknown
Longitude
Unknown
Altitude
Unknown
Speed
Unknown
Apparent Right ascension
Unknown
Apparent Declination
Unknown
Sunlit
N/A
Visualization observer readout
Local Sidereal Time
07:57:35
Azimuth
Unknown
Elevation
Unknown
Doppler factor
Unknown
Orbital elements
Apogee altitude
360.826 km
Perigee altitude
359.139 km
Semi-major axis
6,738.119 km
Eccentricity
0.00013
Inclination
53.16°
RAAN
254.0384°
Arg. of periapsis
98.9864°
True anomaly
261.11533°
Mean anomaly
261.1295°
Eccentric anomaly
261.12241°
Mean motion
3.92406 °/min
Orbital period
91.74 mins
BSTAR
0.000023718
Loading maneuver chart data...
Computing Atmospheric mass density...
Loading historical data...
Loading historical data...
Loading historical data...
Loading historical data...
Loading historical data...
Loading historical data...
Loading historical data...

Documentation

Showing up to 5 results
|